QFA124 VABB-YSSY

Flight info

Callsign QFA124
Flight time N/A
Altitude 35000
Route VEVAK2A MABTA B211 MMV L896 PAKRA/N0482F370 L896 ESLOG/N0474F390 L896 SAPDA G222 PKS/N0393F190 W440 AKMIR W113 ODALE
Aircraft A332/H-SDE3GHIJ2J3J5M1RVWXY/LB2D1

Departure

Time N/A
Airport Chhatrapati Shivaji Maharaj International Airport (VABB)

Arrival

Time 2026-04-30 01:54
Airport Sydney Kingsford Smith International Airport (YSSY)
Time Latitude Longitude Altitude Speed Heading
2026-04-30 01:35 -34.15211 150.25156 33900 ft 485 kts 75°
2026-04-30 01:35 -34.14202 150.29054 32987 ft 485 kts 74°
2026-04-30 01:35 -34.13217 150.32943 31672 ft 484 kts 75°
2026-04-30 01:35 -34.12281 150.36862 30136 ft 492 kts 75°
2026-04-30 01:36 -34.11360 150.40875 28861 ft 497 kts 76°
2026-04-30 01:36 -34.10464 150.44858 27745 ft 486 kts 76°
2026-04-30 01:36 -34.09609 150.48701 27390 ft 458 kts 76°
2026-04-30 01:36 -34.08820 150.52278 27377 ft 425 kts 76°
2026-04-30 01:37 -34.08098 150.55603 27363 ft 395 kts 76°
2026-04-30 01:37 -34.07429 150.58704 27354 ft 369 kts 76°
2026-04-30 01:37 -34.06794 150.61652 27014 ft 360 kts 77°
2026-04-30 01:37 -34.06158 150.64614 26265 ft 370 kts 76°
2026-04-30 01:38 -34.05506 150.67642 25650 ft 375 kts 77°
2026-04-30 01:38 -34.04860 150.70639 25064 ft 372 kts 76°
2026-04-30 01:38 -34.04209 150.73646 24382 ft 369 kts 77°
2026-04-30 01:38 -34.03563 150.76631 23676 ft 366 kts 76°
2026-04-30 01:39 -34.02905 150.79571 22914 ft 362 kts 76°
2026-04-30 01:39 -34.02229 150.82475 22210 ft 357 kts 75°
2026-04-30 01:39 -34.01558 150.85338 21474 ft 353 kts 75°
2026-04-30 01:39 -34.00891 150.88176 20784 ft 350 kts 75°
2026-04-30 01:40 -34.00233 150.90977 20090 ft 346 kts 75°
2026-04-30 01:40 -33.99580 150.93753 19425 ft 342 kts 75°
2026-04-30 01:40 -33.98935 150.96495 18762 ft 339 kts 76°
2026-04-30 01:40 -33.98335 150.99228 18032 ft 335 kts 76°
2026-04-30 01:41 -33.97959 151.01024 17557 ft 332 kts 76°
2026-04-30 01:41 -33.97440 151.03716 16875 ft 327 kts 83°
2026-04-30 01:41 -33.97795 151.07291 15927 ft 324 kts 112°
2026-04-30 01:41 -33.98531 151.08846 15440 ft 323 kts 128°
2026-04-30 01:42 -34.00208 151.10610 14739 ft 321 kts 151°
2026-04-30 01:42 -34.02289 151.11558 14015 ft 320 kts 165°
2026-04-30 01:42 -34.04449 151.12177 13235 ft 318 kts 167°
2026-04-30 01:42 -34.06607 151.12742 12493 ft 316 kts 167°
2026-04-30 01:43 -34.08752 151.13287 11750 ft 314 kts 168°
2026-04-30 01:43 -34.10878 151.13820 11026 ft 310 kts 167°
2026-04-30 01:43 -34.12982 151.14338 10311 ft 307 kts 167°
2026-04-30 01:43 -34.15064 151.14841 9538 ft 304 kts 168°
2026-04-30 01:44 -34.17126 151.15337 8769 ft 301 kts 168°
2026-04-30 01:44 -34.19170 151.15820 8015 ft 298 kts 168°
2026-04-30 01:44 -34.21200 151.16291 7295 ft 296 kts 168°
2026-04-30 01:44 -34.23219 151.16746 6557 ft 294 kts 168°
2026-04-30 01:45 -34.25225 151.17191 5800 ft 291 kts 168°
2026-04-30 01:45 -34.27131 151.17883 5045 ft 284 kts 149°
2026-04-30 01:45 -34.28588 151.19413 4295 ft 275 kts 122°
2026-04-30 01:45 -34.29300 151.21500 3573 ft 266 kts 97°
2026-04-30 01:46 -34.29153 151.23637 3127 ft 248 kts 65°
2026-04-30 01:46 -34.28108 151.25082 2999 ft 224 kts 27°
2026-04-30 01:46 -34.26689 151.25567 2989 ft 204 kts
2026-04-30 01:46 -34.25280 151.25553 3013 ft 199 kts 355°
2026-04-30 01:47 -34.23941 151.25260 3009 ft 198 kts 350°
2026-04-30 01:47 -34.22571 151.24894 3001 ft 199 kts 349°
2026-04-30 01:47 -34.21235 151.24538 3001 ft 199 kts 350°
2026-04-30 01:47 -34.19881 151.24181 2999 ft 199 kts 350°
2026-04-30 01:48 -34.18527 151.23828 2998 ft 199 kts 350°
2026-04-30 01:48 -34.17174 151.23476 2997 ft 199 kts 350°
2026-04-30 01:48 -34.15821 151.23126 2996 ft 199 kts 350°
2026-04-30 01:48 -34.14468 151.22774 2996 ft 199 kts 350°
2026-04-30 01:49 -34.13115 151.22421 2997 ft 199 kts 350°
2026-04-30 01:49 -34.11768 151.22069 2988 ft 193 kts 350°
2026-04-30 01:49 -34.10511 151.21737 2889 ft 177 kts 351°
2026-04-30 01:49 -34.09353 151.21435 2659 ft 166 kts 351°
2026-04-30 01:50 -34.08254 151.21149 2411 ft 159 kts 350°
2026-04-30 01:50 -34.07182 151.20870 2189 ft 155 kts 349°
2026-04-30 01:50 -34.06161 151.20603 1981 ft 144 kts 350°
2026-04-30 01:50 -34.05213 151.20356 1795 ft 137 kts 349°
2026-04-30 01:51 -34.04294 151.20116 1627 ft 135 kts 349°
2026-04-30 01:51 -34.03375 151.19877 1434 ft 135 kts 350°
2026-04-30 01:51 -34.02453 151.19636 1266 ft 136 kts 350°
2026-04-30 01:51 -34.01535 151.19395 1074 ft 134 kts 350°
2026-04-30 01:52 -34.00623 151.19155 902 ft 135 kts 349°
2026-04-30 01:52 -33.99706 151.18909 718 ft 135 kts 348°
2026-04-30 01:52 -33.98783 151.18685 540 ft 136 kts 348°
2026-04-30 01:52 -33.97860 151.18452 360 ft 135 kts 349°
2026-04-30 01:53 -33.96940 151.18208 162 ft 135 kts 348°
2026-04-30 01:53 -33.96022 151.17961 37 ft 132 kts 348°
2026-04-30 01:53 -33.95284 151.17768 33 ft 72 kts 348°
2026-04-30 01:53 -33.94895 151.17666 33 ft 53 kts 347°
2026-04-30 01:54 -33.94599 151.17573 34 ft 39 kts 340°
2026-04-30 01:54 -33.94424 151.17458 34 ft 23 kts 322°
2026-04-30 01:54 -33.94315 151.17343 34 ft 12 kts 317°
2026-04-30 01:54 -33.94288 151.17315 33 ft 3 kts 324°
2026-04-30 01:55 -33.94228 151.17291 33 ft 14 kts 347°
2026-04-30 01:55 -33.94110 151.17260 32 ft 19 kts 347°
2026-04-30 01:55 -33.94001 151.17219 33 ft 14 kts 317°
2026-04-30 01:55 -33.93996 151.17115 33 ft 13 kts 255°
2026-04-30 01:56 -33.94023 151.17000 33 ft 15 kts 253°
2026-04-30 01:56 -33.94050 151.16891 34 ft 8 kts 253°
2026-04-30 01:56 -33.94046 151.16829 34 ft 7 kts 304°
2026-04-30 01:56 -33.93996 151.16797 34 ft 9 kts 343°
2026-04-30 01:57 -33.93927 151.16774 34 ft 11 kts 344°
2026-04-30 01:57 -33.93876 151.16758 34 ft 6 kts 349°
2026-04-30 01:57 -33.93848 151.16779 34 ft 5 kts 50°
2026-04-30 01:57 -33.93835 151.16809 34 ft 1 kts 69°
2026-04-30 01:58 -33.93832 151.16823 34 ft 3 kts 72°
2026-04-30 01:58 -33.93827 151.16841 34 ft 1 kts 73°
2026-04-30 01:58 -33.93826 151.16846 34 ft 0 kts 73°